Location: Chèvreville
(49.1099°N, 2.8495°E)
Time: 19:35:05
(UTC+00:00)

NOSS 2-1 (D) - Visible Passes

Search period start: 12 October 2024 00:00
Search period end: 22 October 2024 00:00
Orbit: 383 x 1726 km, 63.3° (Epoch: 12 October)

Date Brightness Start Highest point End Pass type
(mag) Time Alt. Az. Time Alt. Az. Time Alt. Az.
12 Oct 3.3 04:08:50 43° S 04:09:30 53° SE 04:12:28 10° NE visible
13 Oct 5.8 03:11:35 15° E 03:11:35 15° E 03:12:32 10° ENE visible
13 Oct 3.5 04:57:56 21° W 04:59:27 33° NW 05:02:15 10° NNE visible
14 Oct 3.2 04:00:34 55° NE 04:00:34 55° NE 04:03:00 10° NE visible
15 Oct 6.2 03:03:06 11° ENE 03:03:06 11° ENE 03:03:19 10° ENE visible
15 Oct 4.0 04:49:27 22° NW 04:49:59 23° NW 04:52:31 10° NNE visible
16 Oct 4.6 03:51:53 25° NNE 03:51:53 25° NNE 03:53:21 10° NE visible
17 Oct 4.5 04:40:36 18° NNW 04:40:36 18° NNW 04:42:38 10° NNE visible
18 Oct 5.4 03:42:54 15° NNE 03:42:54 15° NNE 03:43:33 10° NNE visible
19 Oct 5.0 04:31:29 13° NNW 04:31:29 13° NNW 04:32:35 10° N visible
21 Oct 5.4 04:22:09 10° N 04:22:09 10° N 04:22:17 10° N visible
